Erik Suslov

首席球探 - MFK Skalica
18 十二月 2027
星期六
處理

性格

適應力 (11) 野心 (14) 爭議性 (14) 忠誠度 (10) 抗壓 (13) 職業素養 (7) 體育精神 (5) 性情 (5)

個人檔案

執教風格 民主型
教練證照 洲際C級
決心 7
人員管理 2
激勵 3
紀律 9
工作滿意度
93%
疲勞度
0%
職務 首席球探
薪資 7.8K 每週
合約 14.03.2028

性能

行為 良好
訓練效果
15%
球員發展
15%
傷病預防
10%
戰術執行
20%

近期事件

合約談判開始 刚刚
合約談判開始 刚刚

正在监控

48
球員 俱樂部 狀態 能力 信心 已观察 最后观察 最新投票
Sam Nombe Milton Keynes Dons 活跃 122 / 119 40% 2 01.08.2027 -
Jonathan Cañete Portuguesa 活跃 93 / 103 40% 1 01.08.2027 -
Harry Cornick AFC Wimbledon 活跃 96 / 88 40% 1 30.07.2027 -
Samson Tovide Colchester United 活跃 97 / 95 40% 1 30.07.2027 -
Mattia Bortolussi Padova 活跃 133 / 112 40% 2 29.07.2027 -
Marco Tumminello Benevento 活跃 123 / 109 40% 1 29.07.2027 -
Gianluca Caprari Padova 活跃 119 / 126 40% 2 27.07.2027 -
Harry Smith Barnet 活跃 116 / 113 40% 1 26.07.2027 -
Shaq Forde Bristol Rovers 活跃 76 / 111 40% 1 24.07.2027 -
Christian Saydee Wigan Athletic 活跃 98 / 102 40% 1 24.07.2027 -
Duncan Watmore Rotherham United 活跃 104 / 105 40% 1 23.07.2027 -
Callum Stead Barnet 活跃 99 / 91 40% 1 23.07.2027 -
Eric Lanini Novara 活跃 122 / 94 40% 1 22.07.2027 -
Joaquín Vera Crawley Town 活跃 109 / 106 40% 1 20.07.2027 -
Joe Ironside Tranmere Rovers 活跃 94 / 90 40% 1 20.07.2027 -
Claudio Morra Vicenza 活跃 107 / 130 40% 2 18.07.2027 -
Iwan Morgan Grimsby Town 活跃 115 / 115 40% 1 18.07.2027 -
Lamine Diakité Djoliba 活跃 95 / 99 40% 1 17.07.2027 -
Charlie Brown Accrington Stanley 活跃 77 / 87 40% 1 17.07.2027 -
Leonardo Morosini Carpi 活跃 77 / 117 40% 1 16.07.2027 -
Augusto Berrondo Tristán Suárez 活跃 109 / 120 40% 1 16.07.2027 -
Danil Karpov Chernomorets 活跃 79 / 86 40% 1 13.07.2027 -
Enzo González Defensores 活跃 115 / 119 40% 1 13.07.2027 -
Simone Verdi Benevento 活跃 101 / 101 40% 1 11.07.2027 -
Chinedu Onyinjekwu Bayelsa United 活跃 85 / 114 40% 1 07.07.2027 -
Alessandro Bolzan Sorrento 活跃 99 / 87 40% 1 07.07.2027 -
Damir Céter Hamrun Spartans 活跃 108 / 103 40% 2 29.06.2027 -
Esteban da Silva Racing 活跃 90 / 127 40% 1 29.06.2027 -
Gonzalo Berterame Morón 活跃 123 / 99 40% 1 23.06.2027 -
Angelo Guida Siracusa 活跃 94 / 90 40% 1 23.06.2027 -
Ayom Majok Zabbar St. Patrick 活跃 96 / 85 40% 1 14.06.2027 -
Stanislav Biblyk Chaika 活跃 89 / 101 40% 1 14.06.2027 -
Cheickna Samaké Djoliba 活跃 110 / 95 40% 2 08.06.2027 -
Jacobo Alcalde SKA Khabarovsk 活跃 101 / 96 40% 1 06.06.2027 -
Gabriele Bernardotto Monopoli 活跃 76 / 95 40% 1 05.06.2027 -
Lorenzo De Leo Renate 活跃 80 / 99 40% 1 05.06.2027 -
Omar Popov Dinamo St Petersburg 活跃 80 / 76 40% 1 03.06.2027 -
King Udoh Pro Patria 活跃 89 / 87 40% 1 03.06.2027 -
Kabiru Abdullahi Northampton Town 活跃 104 / 86 40% 1 02.06.2027 -
Ricardo Dinanga Shrewsbury Town 活跃 68 / 103 40% 1 02.06.2027 -
Moussakoye Diallo Stade Malien 活跃 95 / 99 40% 1 02.01.2027 -
Stiven Rentería HIFK 活跃 87 / 87 40% 1 25.08.2026 -
Felipe Tempone Independiente 活跃 60 / 69 40% 1 25.08.2026 -
Prosper Obiora Nwachukwu ND Gorica 活跃 91 / 101 40% 1 18.08.2026 -
José Rondón Zulia 活跃 94 / 104 40% 1 18.08.2026 -
Johnmark Atule Shooting Stars 活跃 79 / 83 40% 1 11.08.2026 -
Kirill Kirilenko Dnepr Mogilev 活跃 105 / 82 40% 1 11.08.2026 -
Gonzalo Córdoba Mitre 活跃 106 / 105 40% 1 06.08.2026 -